Temperature
18 17 17 17 17 17 17 17 17 17 17 17 17 17 17 17 17 17 17 17 17 17 17 17 17 17 17 17 17 17 17 17 17 17 16 16 16 16 16 16 16 16 16
17 17 17 17 17 17 17 17 17 17 17 17 17 17 17 17 17 17 17 17 17 17 17 17 17 17 17 17 17 17 17 17 17 17 16 16 16 16 16 16 16 16 16
17 17 17 17 16 16 16 16 16 16 17 17 17 17 17 17 17 17 17 17 17 17 17 17 17 17 17 17 17 17 17 17 17 17 17 16 16 16 16 16 16 16 16
17 17 16 16 16 16 16 16 16 16 16 16 16 17 17 16 16 16 16 16 16 17 17 17 17 17 17 17 17 16 16 16 16 16 16 16 16 16 16 16 16 16 16
17 16 16 16 16 16 16 16 16 16 16 16 16 17 16 16 16 16 16 16 16 16 16 16 16 16 16 16 16 16 16 16 16 16 16 16 16 16 16 16 16 16 16
16 16 16 16 16 16 15 15 15 16 16 16 16 16 17 17 16 17 16 17 16 16 16 16 16 16 16 16 16 16 16 16 16 16 16 16 16 16 16 16 16 16 16
16 16 16 16 15 15 15 15 15 15 16 16 16 16 17 17 17 16 16 16 16 16 16 16 16 16 16 16 16 16 16 16 16 16 16 16 16 16 16 16 16 16 16
16 16 16 15 15 15 15 15 15 15 15 16 16 16 17 16 16 16 16 16 16 16 16 16 16 16 16 16 15 15 15 15 15 16 16 16 16 16 16 16 16 16 16
16 16 15 15 15 15 15 15 15 15 15 15 16 16 16 16 16 16 16 16 16 16 16 16 15 15 15 15 15 15 15 15 15 15 15 15 15 15 15 15 16 16 16
15 15 15 15 15 15 15 14 14 15 15 15 15 16 15 16 16 16 16 16 16 16 16 15 15 15 15 15 15 15 15 15 15 15 15 15 15 15 15 15 15 15 15
15 15 15 15 15 14 14 14 14 14 14 15 15 15 15 16 16 16 16 16 16 16 15 15 15 15 15 15 15 15 15 15 15 15 15 15 15 15 15 15 15 15 15
16 15 15 15 15 14 14 14 14 14 14 14 15 15 15 15 16 16 16 16 16 16 16 15 15 15 15 15 15 15 15 15 15 15 15 15 15 15 15 15 15 15 15
16 16 15 15 15 14 14 14 14 14 14 14 14 14 14 15 15 15 15 15 16 16 16 15 15 15 15 14 14 14 14 14 14 14 14 15 15 15 15 15 15 15 15
16 16 16 15 15 14 14 14 14 14 14 14 14 14 14 14 14 14 14 15 15 15 16 16 15 15 15 14 14 14 14 14 14 14 14 14 14 15 15 15 15 15 15
16 16 16 16 15 15 14 14 14 14 14 14 14 14 14 14 14 14 14 14 14 14 15 15 15 15 14 14 14 14 14 13 13 14 14 14 14 14 14 14 14 14 15
16 16 16 16 15 15 14 14 14 14 14 14 14 14 14 14 14 13 13 14 14 14 14 14 14 14 14 14 14 13 13 13 13 13 13 14 14 14 14 14 14 14 14
17 16 16 16 15 15 15 15 14 14 14 14 13 13 14 14 14 13 13 13 13 14 14 14 14 14 14 14 13 13 13 13 13 13 13 13 13 14 14 14 14 14 14
17 17 16 16 15 15 15 15 15 14 14 14 14 14 14 14 14 14 14 14 14 13 13 14 14 14 14 13 13 13 13 13 13 13 13 13 13 13 13 14 14 14 14
17 17 17 16 16 15 15 15 15 15 14 14 14 14 14 14 14 14 14 14 14 13 13 13 13 13 13 13 13 13 13 13 13 13 13 13 13 13 13 13 13 13 13
17 17 17 17 16 16 15 15 15 15 15 14 14 14 14 14 14 14 14 14 14 13 13 13 13 13 13 13 13 13 13 13 13 13 13 13 13 13 13 13 13 13 13
17 17 17 16 16 16 16 15 15 15 15 15 15 14 14 14 14 14 14 14 13 13 13 13 13 13 13 13 13 13 13 13 13 13 13 13 13 13 13 13 13 13 13
17 17 17 16 16 16 16 15 15 15 15 15 15 15 15 14 14 14 14 14 14 13 13 13 13 13 13 13 13 13 12 12 12 13 13 13 13 13 13 13 13 13 13
17 16 16 16 16 16 16 15 15 15 15 15 15 15 15 14 14 14 14 14 14 14 13 13 13 13 13 13 13 12 12 12 12 12 12 12 12 12 12 12 12 13 13
17 17 16 16 16 16 16 16 15 15 15 15 15 15 15 15 14 14 13 13 13 13 13 13 13 13 13 13 13 12 12 12 12 12 12 12 12 12 12 12 12 12 12
16 16 16 16 16 16 15 15 15 15 15 15 15 15 15 14 14 14 13 13 13 13 13 13 13 13 13 13 12 12 12 11 11 12 12 12 12 12 12 12 12 12 12
15 15 15 15 15 15 15 15 15 14 14 14 14 14 14 14 14 14 13 13 13 13 13 13 12 12 12 12 12 12 12 11 11 11 12 12 12 12 12 12 12 12 12
Wind_Speed
3 4 3 2 1 2 2 1 2 1 1 2 4 3 3 5 5 6 9 12 11 10 11 11 11 11 11 11 10 9 8 8 8 8 8 9 10 10 9 8 9 9 9
5 3 2 1 3 5 4 2 1 0 0 0 2 1 2 3 4 3 4 9 10 10 10 11 11 12 11 12 12 11 10 9 9 9 9 9 10 11 10 10 9 9 9
4 2 2 1 3 3 1 1 2 2 1 1 1 0 1 1 2 2 2 3 7 9 11 11 11 11 12 12 13 13 12 11 10 10 10 10 11 11 11 11 11 10 10
3 2 2 3 2 1 1 1 1 2 2 2 1 1 1 1 2 3 4 4 6 7 10 12 12 12 12 13 13 14 14 12 12 11 11 11 11 12 12 12 12 12 11
4 3 3 3 1 0 2 2 4 3 3 3 2 2 1 1 2 3 2 2 3 6 8 12 13 13 13 13 14 14 14 14 13 13 12 12 12 13 14 14 13 14 13
3 2 5 2 2 2 3 3 2 1 1 2 4 1 1 1 1 1 1 1 3 4 6 9 11 11 13 14 14 14 14 14 15 15 15 14 13 14 15 15 15 15 15
4 1 3 3 1 3 3 3 2 2 1 1 3 2 3 3 3 2 1 2 1 2 3 6 8 7 8 12 14 14 14 14 14 15 15 16 15 15 16 16 17 18 17
6 4 3 2 2 3 3 2 2 3 2 1 2 3 1 2 0 3 2 1 3 3 1 3 5 5 4 7 10 12 13 13 13 14 15 15 16 16 16 17 18 19 19
5 3 3 1 1 2 3 1 1 2 3 2 2 3 2 2 1 2 2 3 2 2 1 2 4 5 5 7 7 7 9 9 10 12 13 14 15 16 17 17 18 19 20
6 6 4 3 0 1 3 2 2 2 2 2 1 1 2 2 1 1 1 3 2 2 1 1 2 3 6 7 8 6 6 6 7 8 10 13 14 16 17 19 19 19 20
5 6 5 4 2 1 2 2 2 2 2 3 3 1 1 1 2 1 1 1 2 2 3 2 1 2 4 7 8 7 6 5 5 6 7 9 12 14 16 18 19 19 20
5 6 6 4 3 2 2 2 1 1 1 3 4 4 2 2 2 2 1 1 1 1 3 2 1 1 2 5 8 8 7 5 3 3 5 7 10 12 14 15 17 18 18
6 7 6 5 3 3 3 2 2 1 1 1 2 3 3 3 3 3 3 3 2 1 2 2 3 3 2 7 9 7 7 6 5 3 4 5 7 9 12 13 15 15 16
6 8 6 6 5 5 5 3 3 4 3 2 3 2 3 2 2 2 2 3 4 3 1 1 2 3 3 6 8 4 6 8 8 7 6 7 7 8 10 11 12 13 14
5 9 7 7 6 5 3 3 3 3 3 3 3 3 3 2 2 2 2 2 3 4 3 0 1 3 3 3 8 5 4 9 11 11 10 10 10 9 9 10 11 12 13
5 8 7 7 7 6 5 5 4 4 4 4 3 3 2 3 1 2 2 2 2 3 3 2 2 1 1 2 4 4 6 9 14 16 16 16 14 13 12 11 11 12 13
6 7 7 7 7 7 7 6 6 5 6 5 5 5 4 4 3 3 3 3 3 3 4 4 3 2 2 3 3 6 9 11 12 19 21 21 19 17 16 15 14 14 14
7 8 8 7 8 8 7 7 8 7 6 6 6 6 5 5 5 4 4 4 4 3 4 5 4 4 5 4 5 5 8 11 11 13 18 21 21 21 19 18 17 17 17
8 8 8 8 8 8 8 8 8 7 7 7 7 7 6 6 6 5 5 5 4 5 4 5 5 5 4 5 5 5 7 6 11 13 15 21 23 23 22 22 21 20 20
9 9 9 9 8 8 8 8 8 8 8 7 7 7 7 7 7 7 7 7 6 6 6 6 6 6 6 5 4 5 5 5 6 9 8 10 18 24 26 26 25 24 23
11 9 9 9 9 9 9 9 8 10 9 8 8 8 9 10 10 8 8 6 6 5 6 6 6 6 5 3 3 3 5 4 5 5 5 5 6 9 15 21 24 25 26
9 9 9 9 10 10 11 12 9 7 7 8 8 8 9 11 13 14 14 12 10 9 8 7 7 7 6 5 4 4 5 5 5 4 3 5 4 5 6 11 18 24 27
10 9 9 9 9 9 10 12 12 8 7 7 7 7 10 12 10 10 13 16 16 17 15 10 11 10 9 7 6 6 6 6 6 5 5 7 6 7 6 13 16 18 23
8 8 8 9 8 10 12 13 12 9 8 8 9 9 9 10 11 9 9 10 11 13 15 14 14 14 13 10 9 8 8 8 8 8 8 9 7 7 8 9 15 16 19
8 8 8 8 9 9 12 13 12 8 8 10 10 11 11 11 14 14 11 11 11 11 15 19 20 20 20 18 12 7 7 8 10 8 7 8 8 7 7 7 11 18 20
6 7 7 7 8 8 11 14 13 8 8 8 8 10 14 14 14 13 11 11 13 12 11 12 11 15 16 17 18 13 11 11 10 9 8 7 7 6 7 6 6 8 12
Wind_Direction
86 85 73 52 68 86 91 51 56 38 16 343 319 340 347 356 18 78 138 148 151 160 170 176 180 185 182 178 179 182 181 177 179 183 184 183 176 175 176 175 172 169 167
79 93 103 59 51 59 51 359 1 311 13 81 293 337 333 353 26 36 135 153 161 168 174 180 186 190 191 187 188 190 188 188 188 188 192 194 191 187 187 188 185 182 180
94 88 102 94 50 44 48 18 350 296 234 229 218 306 269 34 44 17 341 169 172 185 186 186 191 195 199 198 195 194 196 196 195 193 197 200 202 200 197 196 196 193 191
101 76 84 75 36 4 26 65 15 347 18 7 18 336 31 119 185 214 240 215 183 186 190 194 196 199 203 204 202 202 201 200 200 202 204 205 208 209 207 205 204 202 200
110 96 85 73 295 46 43 18 56 25 357 6 308 217 208 200 187 230 218 227 189 176 180 190 198 204 208 211 210 208 205 207 208 212 214 213 214 214 213 212 210 208 208
116 121 113 89 345 62 53 50 23 40 311 328 311 27 211 172 190 93 283 238 184 184 176 176 187 206 216 216 213 211 211 214 217 218 221 221 219 218 218 217 216 214 214
133 41 100 117 42 75 61 44 11 300 223 35 308 272 192 176 135 114 40 20 67 88 119 155 171 185 203 215 215 212 214 218 222 224 225 227 228 225 223 222 222 220 218
159 161 107 141 93 105 81 43 32 334 334 72 330 306 156 112 317 125 126 127 58 48 59 135 149 164 190 179 204 212 216 220 221 221 224 228 230 230 228 226 225 224 222
164 115 130 104 120 157 129 108 1 348 344 356 41 355 357 55 145 119 104 85 68 33 17 76 124 138 148 142 155 188 205 214 222 226 228 231 232 232 233 234 231 227 226
165 160 165 142 214 49 124 188 114 331 318 314 124 99 58 59 349 82 179 130 162 152 86 24 60 107 124 128 132 147 176 198 216 227 230 230 233 235 236 236 236 234 230
178 178 172 161 175 140 105 69 85 349 334 339 344 344 42 184 260 251 145 175 216 165 153 146 102 86 128 138 135 139 150 174 206 228 236 237 239 239 237 237 239 239 237
182 181 178 168 190 176 139 145 164 174 3 1 348 344 349 346 338 352 342 276 239 152 144 132 149 156 157 139 135 138 149 153 173 219 241 247 248 244 243 242 242 241 240
179 177 176 167 189 168 175 173 187 226 201 329 314 321 341 348 358 358 342 330 334 279 186 180 169 161 160 121 131 147 172 178 190 215 246 257 256 252 251 248 246 245 243
174 162 162 170 190 189 198 176 210 199 186 224 261 305 311 321 335 338 331 335 323 309 241 158 135 135 118 121 151 176 193 204 209 222 239 253 259 260 258 255 252 249 246
154 151 165 176 189 194 199 176 228 224 172 217 235 220 247 268 264 308 319 326 323 322 329 294 155 140 152 162 175 216 239 222 221 228 237 245 250 255 258 257 253 250 248
161 153 172 183 188 187 192 207 230 208 205 226 242 243 251 283 275 264 268 275 274 285 299 312 295 178 150 271 210 242 270 255 231 233 237 240 241 244 248 251 253 252 251
166 167 183 189 192 194 194 201 234 218 206 222 236 227 223 251 277 284 264 254 250 251 270 289 294 296 232 246 248 255 269 264 247 241 238 236 236 238 241 245 248 251 252
182 186 193 198 204 203 197 201 222 227 212 219 230 235 230 233 224 247 269 270 263 251 248 269 279 274 257 236 230 231 257 268 267 263 240 231 231 233 236 240 243 246 249
191 194 199 204 211 211 203 206 214 228 228 226 227 230 232 235 236 236 243 258 268 269 247 255 266 262 253 248 242 244 253 257 266 273 248 229 229 232 236 239 241 242 244
196 200 201 207 212 216 213 210 212 219 228 231 231 231 233 234 233 233 243 242 250 262 266 261 260 259 251 240 225 234 255 249 255 269 272 243 231 233 236 239 240 241 242
202 203 206 210 213 218 221 215 215 220 221 229 232 232 236 237 235 234 244 242 250 251 258 261 261 262 259 258 252 249 262 269 259 252 254 255 240 230 234 240 242 243 242
205 200 206 213 216 223 216 207 208 231 227 230 236 237 241 236 234 232 237 241 241 247 254 261 269 268 269 268 268 270 268 271 273 267 271 270 263 254 242 237 235 234 236
206 207 208 214 221 224 216 202 205 222 240 244 246 247 254 254 238 230 230 234 240 242 238 243 256 260 265 268 272 271 266 265 265 270 284 273 263 262 257 266 263 242 233
207 211 214 218 225 226 211 205 206 220 239 247 248 249 250 258 261 252 247 240 234 237 234 234 241 247 251 253 253 255 259 265 262 253 243 255 254 253 259 259 261 253 239
209 212 215 222 228 229 209 204 200 222 238 246 249 250 249 250 250 248 250 252 252 250 247 239 227 232 236 242 242 249 254 259 265 260 241 242 247 249 249 248 250 249 241
215 219 221 223 228 232 212 204 201 224 241 250 253 253 250 249 252 245 243 249 253 254 256 262 246 241 243 244 236 231 239 248 256 261 246 241 246 247 257 249 244 245 241
Height
1561 1562 1562 1563 1564 1565 1565 1565 1566 1566 1566 1567 1567 1568 1568 1569 1570 1570 1571 1572 1573 1575 1576 1578 1579 1581 1583 1585 1586 1588 1590 1592 1593 1595 1596 1598 1599 1601 1602 1603 1605 1606 1607
1560 1561 1562 1563 1563 1564 1564 1564 1564 1565 1565 1566 1566 1566 1567 1567 1568 1569 1570 1571 1572 1573 1575 1576 1578 1580 1582 1583 1585 1587 1588 1590 1592 1594 1595 1597 1598 1600 1601 1603 1604 1605 1606
1560 1561 1562 1562 1562 1563 1563 1564 1564 1564 1565 1565 1565 1566 1566 1566 1567 1568 1569 1570 1571 1572 1573 1575 1576 1578 1580 1581 1583 1585 1587 1589 1590 1592 1594 1595 1597 1599 1600 1602 1603 1604 1606
1559 1560 1561 1561 1562 1562 1563 1563 1563 1564 1564 1564 1564 1565 1565 1566 1566 1567 1568 1569 1570 1571 1572 1573 1575 1576 1578 1579 1581 1583 1585 1587 1588 1590 1592 1594 1595 1597 1599 1600 1602 1603 1605
1558 1559 1560 1560 1561 1562 1562 1562 1562 1562 1563 1563 1564 1564 1565 1565 1566 1567 1567 1568 1569 1570 1570 1571 1573 1574 1575 1577 1578 1580 1582 1584 1586 1588 1589 1591 1593 1595 1596 1598 1600 1601 1603
1558 1559 1559 1559 1560 1561 1561 1561 1561 1562 1562 1563 1563 1564 1565 1565 1566 1566 1567 1568 1568 1569 1569 1570 1571 1572 1573 1574 1575 1577 1579 1580 1582 1584 1586 1588 1590 1592 1594 1596 1598 1599 1601
1557 1558 1559 1559 1559 1560 1560 1560 1561 1562 1563 1563 1563 1563 1564 1565 1565 1566 1567 1567 1568 1568 1569 1569 1570 1570 1571 1572 1573 1574 1575 1577 1579 1581 1583 1585 1587 1589 1591 1593 1595 1597 1598
1556 1558 1558 1559 1559 1559 1560 1560 1561 1561 1563 1563 1563 1563 1564 1566 1565 1566 1566 1567 1567 1568 1568 1569 1569 1569 1569 1570 1571 1572 1573 1574 1575 1577 1579 1581 1583 1585 1587 1589 1591 1593 1595
1556 1557 1557 1558 1559 1559 1559 1560 1560 1561 1562 1563 1563 1563 1563 1564 1565 1566 1566 1567 1567 1567 1568 1568 1568 1568 1568 1568 1569 1570 1570 1571 1572 1574 1575 1577 1579 1580 1583 1585 1587 1589 1591
1555 1556 1557 1557 1558 1559 1559 1560 1560 1561 1561 1562 1563 1563 1564 1564 1565 1566 1567 1566 1566 1567 1567 1568 1568 1568 1568 1567 1568 1568 1569 1569 1570 1571 1572 1574 1575 1577 1579 1580 1582 1584 1587
1554 1555 1556 1556 1557 1558 1558 1558 1559 1559 1561 1561 1562 1563 1564 1564 1565 1565 1566 1566 1566 1566 1566 1567 1567 1567 1567 1567 1567 1567 1567 1568 1568 1569 1570 1571 1572 1573 1574 1576 1578 1580 1581
1552 1553 1554 1555 1556 1557 1557 1557 1558 1559 1559 1560 1561 1562 1563 1564 1564 1564 1565 1565 1565 1565 1565 1566 1566 1566 1566 1566 1565 1565 1566 1566 1566 1566 1567 1568 1568 1569 1570 1571 1573 1574 1576
1550 1552 1553 1553 1555 1555 1556 1556 1557 1558 1559 1559 1560 1561 1562 1562 1563 1563 1564 1564 1564 1564 1564 1564 1564 1564 1565 1564 1564 1564 1563 1563 1563 1564 1564 1564 1565 1565 1566 1567 1568 1569 1570
1549 1550 1551 1552 1553 1554 1555 1555 1556 1557 1557 1558 1559 1560 1560 1561 1562 1562 1563 1563 1563 1563 1563 1563 1563 1563 1563 1562 1562 1562 1561 1560 1560 1560 1560 1560 1561 1561 1562 1562 1563 1564 1565
1548 1548 1550 1550 1551 1552 1553 1554 1555 1556 1556 1557 1558 1558 1559 1560 1560 1561 1561 1562 1562 1562 1562 1562 1562 1561 1561 1560 1560 1559 1558 1557 1557 1556 1556 1556 1556 1557 1557 1558 1558 1559 1560
1546 1547 1548 1549 1550 1550 1551 1552 1553 1554 1555 1555 1556 1556 1557 1557 1558 1559 1559 1560 1560 1560 1560 1560 1560 1559 1558 1558 1557 1556 1555 1554 1553 1553 1552 1552 1552 1552 1552 1553 1553 1554 1554
1543 1544 1545 1546 1547 1548 1549 1550 1550 1552 1553 1553 1554 1554 1555 1555 1556 1556 1557 1557 1557 1558 1557 1557 1557 1556 1555 1554 1554 1552 1551 1550 1549 1549 1548 1548 1548 1548 1548 1548 1548 1548 1549
1539 1541 1542 1543 1545 1546 1546 1547 1548 1549 1550 1551 1551 1552 1552 1553 1553 1553 1554 1554 1554 1554 1554 1553 1553 1552 1552 1551 1550 1548 1547 1546 1546 1545 1545 1544 1544 1543 1543 1543 1543 1543 1543
1536 1537 1539 1540 1541 1543 1543 1544 1545 1546 1547 1548 1549 1549 1550 1550 1550 1550 1550 1550 1550 1551 1550 1550 1549 1549 1548 1547 1546 1545 1544 1543 1542 1541 1540 1540 1539 1539 1538 1538 1537 1537 1537
1532 1533 1535 1536 1538 1539 1540 1541 1542 1543 1544 1545 1545 1546 1546 1546 1546 1546 1546 1546 1546 1546 1546 1545 1545 1544 1544 1543 1542 1541 1539 1539 1538 1537 1536 1535 1534 1534 1533 1533 1532 1532 1532
1528 1529 1531 1532 1534 1535 1536 1537 1538 1539 1540 1541 1541 1542 1542 1542 1542 1542 1542 1542 1542 1542 1541 1541 1540 1540 1539 1539 1538 1536 1535 1534 1533 1533 1532 1531 1530 1529 1528 1527 1527 1527 1526
1523 1525 1526 1528 1529 1531 1532 1533 1534 1535 1536 1536 1537 1537 1537 1537 1537 1537 1537 1537 1537 1536 1536 1535 1535 1534 1533 1533 1532 1531 1530 1529 1527 1528 1527 1525 1525 1523 1523 1522 1521 1521 1521
1519 1520 1522 1524 1525 1526 1528 1529 1530 1531 1531 1532 1532 1532 1532 1532 1533 1532 1531 1531 1531 1530 1530 1529 1528 1527 1527 1527 1527 1526 1524 1523 1521 1521 1521 1518 1518 1516 1516 1516 1516 1515 1514
1514 1516 1518 1519 1521 1522 1523 1524 1525 1526 1526 1526 1526 1526 1526 1526 1527 1527 1526 1525 1524 1523 1523 1522 1521 1520 1520 1520 1520 1519 1518 1516 1514 1514 1514 1511 1510 1510 1509 1509 1509 1508 1508
1510 1511 1513 1515 1516 1517 1518 1519 1520 1520 1520 1519 1520 1520 1520 1520 1520 1520 1519 1518 1517 1516 1516 1515 1514 1513 1512 1512 1513 1512 1510 1509 1506 1506 1507 1505 1503 1503 1502 1502 1502 1501 1501
1505 1508 1509 1510 1511 1512 1513 1514 1514 1514 1513 1513 1513 1514 1514 1513 1513 1513 1512 1510 1509 1508 1508 1507 1506 1505 1504 1503 1504 1503 1502 1501 1499 1498 1498 1499 1497 1497 1495 1494 1494 1494 1493